| time (UTC) | temp C | wind direction | speed KPH | gust KPH | rain 1hr cm | rain 24hr cm | rain mn cm | humidity % | barometer mb |
| 20260504150710 | 13 | 9 | 11.3 | 16.1 | 0.00 | 0.00 | 0.00 | 68 | |
| 20260504150207 | 13 | 317 | 9.7 | 16.1 | 0.00 | 0.00 | 0.00 | 68 | |
| 20260504141136 | 13 | 44 | 8.0 | 12.9 | 0.00 | 0.10 | 0.10 | 70 | |
| 20260504140633 | 13 | 54 | 14.5 | 17.7 | 0.00 | 0.10 | 0.10 | 70 | |
| 20260504140128 | 13 | 63 | 9.7 | 17.7 | 0.00 | 0.10 | 0.10 | 70 | |
| 20260504130556 | 14 | 38 | 9.7 | 14.5 | 0.00 | 0.10 | 0.10 | 70 | |
| 20260504110444 | 15 | 93 | 11.3 | 14.5 | 0.00 | 0.10 | 0.10 | 71 | |
| 20260504100406 | 15 | 58 | 9.7 | 11.3 | 0.00 | 0.10 | 0.10 | 70 | |
| 20260504081800 | 18 | 35 | 9.7 | 25.7 | 0.00 | 0.10 | 0.10 | 62 | |
| 20260504081256 | 19 | 53 | 6.4 | 14.5 | 0.00 | 0.10 | 0.10 | 59 | |
| 20260504080753 | 20 | 36 | 14.5 | 22.5 | 0.00 | 0.10 | 0.10 | 46 | |
| 20260504080249 | 20 | 31 | 20.9 | 27.4 | 0.00 | 0.10 | 0.10 | 42 | |
| 20260504070217 | 21 | 342 | 29.0 | 37.0 | 0.00 | 0.10 | 0.10 | 43 | |
| 20260504060137 | 21 | 25 | 29.0 | 38.6 | 0.00 | 0.10 | 0.10 | 42 | |
| 20260504050606 | 21 | 6 | 24.1 | 38.6 | 0.00 | 0.10 | 0.10 | 42 | |
| 20260504045559 | 21 | 47 | 17.7 | 30.6 | 0.00 | 0.10 | 0.10 | 41 | |
| 20260504045054 | 21 | 351 | 16.1 | 33.8 | 0.00 | 0.10 | 0.10 | 41 | |
| 20260504044552 | 21 | 31 | 19.3 | 29.0 | 0.00 | 0.10 | 0.10 | 41 | |
| 20260504044049 | 21 | 4 | 17.7 | 24.1 | 0.00 | 0.10 | 0.10 | 42 | |
| 20260504043546 | 21 | 358 | 20.9 | 33.8 | 0.00 | 0.10 | 0.10 | 39 | |
| 20260504043043 | 21 | 5 | 25.7 | 33.8 | 0.00 | 0.10 | 0.10 | 40 | |
| 20260504042540 | 21 | 0 | 25.7 | 43.5 | 0.00 | 0.10 | 0.10 | 39 | |
| 20260504042037 | 22 | 10 | 20.9 | 33.8 | 0.00 | 0.10 | 0.10 | 41 | |
| 20260504041533 | 22 | 32 | 24.1 | 30.6 | 0.00 | 0.10 | 0.10 | 41 | |
| 20260504041029 | 22 | 1 | 27.4 | 33.8 | 0.00 | 0.10 | 0.10 | 42 | |
| 20260504040527 | 22 | 34 | 24.1 | 30.6 | 0.00 | 0.10 | 0.10 | 42 | |
| 20260504040024 | 22 | 353 | 20.9 | 27.4 | 0.00 | 0.10 | 0.10 | 45 | |
| 20260504035521 | 22 | 6 | 33.8 | 38.6 | 0.00 | 0.10 | 0.10 | 43 | |
| 20260504035017 | 22 | 3 | 22.5 | 40.2 | 0.00 | 0.10 | 0.10 | 45 | |
| 20260504034515 | 22 | 0 | 17.7 | 35.4 | 0.00 | 0.10 | 0.10 | 47 | |
| 20260504034011 | 22 | 29 | 29.0 | 33.8 | 0.00 | 0.10 | 0.10 | 46 | |
| 20260504033509 | 21 | 358 | 24.1 | 35.4 | 0.00 | 0.10 | 0.10 | 45 | |
| 20260504033007 | 22 | 6 | 30.6 | 43.5 | 0.00 | 0.10 | 0.10 | 46 | |
| 20260504032503 | 22 | 0 | 22.5 | 40.2 | 0.00 | 0.10 | 0.10 | 47 | |
| 20260504032000 | 21 | 358 | 20.9 | 25.7 | 0.00 | 0.10 | 0.10 | 49 | |
| 20260504031456 | 21 | 356 | 24.1 | 27.4 | 0.00 | 0.10 | 0.10 | 49 | |
| 20260504030953 | 21 | 322 | 29.0 | 38.6 | 0.00 | 0.10 | 0.10 | 49 | |
| 20260504030451 | 21 | 22 | 25.7 | 41.8 | 0.00 | 0.10 | 0.10 | 48 | |
| 20260504025946 | 21 | 357 | 22.5 | 40.2 | 0.00 | 0.10 | 0.10 | 51 | |
| 20260504025443 | 21 | 10 | 35.4 | 41.8 | 0.00 | 0.10 | 0.10 | 53 | |
| 20260504024940 | 21 | 26 | 19.3 | 38.6 | 0.00 | 0.10 | 0.10 | 53 | |
| 20260504024437 | 21 | 18 | 22.5 | 30.6 | 0.00 | 0.10 | 0.10 | 53 | |
| 20260504023934 | 21 | 4 | 33.8 | 41.8 | 0.00 | 0.10 | 0.10 | 53 | |
| 20260504023431 | 21 | 351 | 17.7 | 40.2 | 0.00 | 0.10 | 0.10 | 53 | |
| 20260504022926 | 22 | 348 | 22.5 | 33.8 | 0.00 | 0.10 | 0.10 | 52 | |
| 20260504022423 | 21 | 2 | 32.2 | 37.0 | 0.00 | 0.10 | 0.10 | 52 | |
| 20260504021920 | 21 | 105 | 19.3 | 38.6 | 0.00 | 0.10 | 0.10 | 54 | |
| 20260504021417 | 21 | 8 | 24.1 | 51.5 | 0.00 | 0.10 | 0.10 | 53 | |
| 20260504020914 | 22 | 23 | 19.3 | 27.4 | 0.00 | 0.10 | 0.10 | 53 | |
| 20260504020411 | 22 | 352 | 19.3 | 30.6 | 0.00 | 0.10 | 0.10 | 53 | |
| 20260504015907 | 21 | 4 | 25.7 | 33.8 | 0.00 | 0.10 | 0.10 | 54 | |
| 20260504015403 | 21 | 9 | 27.4 | 35.4 | 0.00 | 0.10 | 0.10 | 55 | |
| 20260504014859 | 21 | 9 | 30.6 | 38.6 | 0.00 | 0.10 | 0.10 | 54 | |
| 20260504014355 | 21 | 345 | 33.8 | 37.0 | 0.00 | 0.10 | 0.10 | 54 | |
| 20260504013853 | 21 | 8 | 30.6 | 51.5 | 0.00 | 0.10 | 0.10 | 54 | |
| 20260504013351 | 21 | 358 | 22.5 | 29.0 | 0.00 | 0.10 | 0.10 | 54 | |
| 20260504012847 | 22 | 61 | 14.5 | 25.7 | 0.00 | 0.10 | 0.10 | 56 | |
| 20260504012345 | 22 | 13 | 22.5 | 35.4 | 0.00 | 0.10 | 0.10 | 54 | |
| 20260504011842 | 21 | 2 | 32.2 | 37.0 | 0.00 | 0.10 | 0.10 | 54 | |
| 20260504011339 | 21 | 350 | 24.1 | 30.6 | 0.00 | 0.10 | 0.10 | 56 | |
| 20260504010835 | 20 | 23 | 11.3 | 30.6 | 0.00 | 0.10 | 0.10 | 57 | |
| 20260504010330 | 20 | 19 | 35.4 | 41.8 | 0.00 | 0.10 | 0.10 | 55 | |
| 20260504005827 | 21 | 357 | 32.2 | 40.2 | 0.00 | 0.10 | 0.10 | 56 | |
| 20260504005324 | 21 | 348 | 25.7 | 43.5 | 0.00 | 0.10 | 0.10 | 55 | |
| 20260504004822 | 21 | 2 | 30.6 | 37.0 | 0.00 | 0.10 | 0.10 | 55 | |
| 20260504004319 | 21 | 357 | 27.4 | 29.0 | 0.00 | 0.10 | 0.10 | 56 | |
| 20260504003815 | 20 | 336 | 27.4 | 37.0 | 0.00 | 0.10 | 0.10 | 58 | |
| 20260504003312 | 20 | 6 | 25.7 | 40.2 | 0.00 | 0.10 | 0.10 | 59 | |
| 20260504002809 | 20 | 1 | 33.8 | 43.5 | 0.00 | 0.10 | 0.10 | 59 | |
| 20260504002306 | 20 | 353 | 17.7 | 41.8 | 0.00 | 0.10 | 0.10 | 61 | |
| 20260504001804 | 20 | 343 | 27.4 | 30.6 | 0.00 | 0.10 | 0.10 | 61 | |
| 20260504001300 | 20 | 348 | 22.5 | 37.0 | 0.00 | 0.10 | 0.10 | 61 | |
| 20260504000757 | 20 | 6 | 27.4 | 43.5 | 0.00 | 0.10 | 0.10 | 60 | |
| 20260504000254 | 20 | 349 | 40.2 | 49.9 | 0.00 | 0.10 | 0.10 | 60 | |
| 20260503235752 | 20 | 353 | 27.4 | 38.6 | 0.00 | 0.10 | 0.10 | 62 | |
| 20260503235249 | 20 | 77 | 19.3 | 30.6 | 0.00 | 0.10 | 0.10 | 63 | |
| 20260503234747 | 20 | 12 | 20.9 | 30.6 | 0.00 | 0.10 | 0.10 | 64 | |
| 20260503234245 | 20 | 3 | 11.3 | 20.9 | 0.00 | 0.10 | 0.10 | 68 | |
| 20260503233742 | 19 | 114 | 0.0 | 11.3 | 0.00 | 0.10 | 0.10 | 70 | |
| 20260503233238 | 19 | 8 | 16.1 | 20.9 | 0.00 | 0.10 | 0.10 | 69 | |
| 20260503232734 | 19 | 8 | 17.7 | 24.1 | 0.00 | 0.10 | 0.10 | 69 | |
| 20260503232232 | 19 | 325 | 3.2 | 11.3 | 0.00 | 0.10 | 0.10 | 71 | |
| 20260503231730 | 18 | 22 | 3.2 | 6.4 | 0.00 | 0.10 | 0.10 | 71 | |
| 20260503231226 | 18 | 23 | 3.2 | 16.1 | 0.00 | 0.10 | 0.10 | 72 | |
| 20260503230722 | 18 | 5 | 9.7 | 14.5 | 0.00 | 0.10 | 0.10 | 72 | |
| 20260503230220 | 18 | 351 | 14.5 | 20.9 | 0.00 | 0.10 | 0.10 | 71 | |
| 20260503225717 | 18 | 332 | 12.9 | 22.5 | 0.00 | 0.10 | 0.10 | 72 | |
| 20260503225217 | 18 | 342 | 14.5 | 16.1 | 0.00 | 0.10 | 0.10 | 73 | |
| 20260503224715 | 18 | 8 | 16.1 | 22.5 | 0.00 | 0.10 | 0.10 | 73 | |
| 20260503224213 | 18 | 349 | 14.5 | 33.8 | 0.00 | 0.10 | 0.10 | 73 | |
| 20260503223710 | 18 | 347 | 24.1 | 35.4 | 0.00 | 0.10 | 0.10 | 73 | |
| 20260503223207 | 18 | 332 | 24.1 | 37.0 | 0.00 | 0.10 | 0.10 | 73 | |
| 20260503222704 | 18 | 23 | 16.1 | 33.8 | 0.00 | 0.10 | 0.10 | 75 | |
| 20260503222201 | 18 | 355 | 24.1 | 30.6 | 0.00 | 0.10 | 0.10 | 75 | |
| 20260503221700 | 18 | 357 | 22.5 | 29.0 | 0.00 | 0.10 | 0.10 | 77 | |
| 20260503221156 | 18 | 59 | 12.9 | 22.5 | 0.00 | 0.10 | 0.10 | 79 | |
| 20260503220653 | 18 | 56 | 8.0 | 17.7 | 0.00 | 0.10 | 0.10 | 80 | |
| 20260503220150 | 18 | 11 | 3.2 | 4.8 | 0.00 | 0.10 | 0.10 | 81 | |
| 20260503215647 | 18 | 76 | 4.8 | 9.7 | 0.00 | 0.10 | 0.10 | 82 | |
| 20260503215143 | 18 | 41 | 1.6 | 9.7 | 0.00 | 0.10 | 0.10 | 83 | |
| 20260503214642 | 18 | 109 | 0.0 | 1.6 | 0.00 | 0.10 | 0.10 | 83 | |
| 20260503214138 | 18 | 327 | 3.2 | 4.8 | 0.00 | 0.10 | 0.10 | 83 | |
| 20260503213637 | 18 | 110 | 1.6 | 4.8 | 0.00 | 0.10 | 0.10 | 83 | |
| 20260503213134 | 18 | 62 | 3.2 | 6.4 | 0.00 | 0.10 | 0.10 | 83 | |
| 20260503212631 | 18 | 31 | 4.8 | 12.9 | 0.00 | 0.10 | 0.10 | 82 | |
| 20260503212129 | 18 | 25 | 4.8 | 4.8 | 0.00 | 0.10 | 0.10 | 82 | |
| 20260503211626 | 18 | 79 | 3.2 | 4.8 | 0.00 | 0.10 | 0.10 | 82 | |
| 20260503211121 | 18 | 60 | 3.2 | 4.8 | 0.00 | 0.10 | 0.10 | 82 | |
| 20260503210618 | 18 | 75 | 1.6 | 1.6 | 0.00 | 0.10 | 0.10 | 82 | |
| 20260503210115 | 18 | 49 | 4.8 | 9.7 | 0.00 | 0.10 | 0.10 | 81 | |
| 20260503205610 | 18 | 33 | 8.0 | 14.5 | 0.00 | 0.10 | 0.10 | 82 | |
| 20260503205107 | 18 | 343 | 9.7 | 14.5 | 0.00 | 0.10 | 0.10 | 82 | |
| 20260503204604 | 18 | 39 | 9.7 | 12.9 | 0.00 | 0.10 | 0.10 | 82 | |
| 20260503204101 | 18 | 358 | 4.8 | 12.9 | 0.00 | 0.10 | 0.10 | 83 | |
| 20260503203558 | 18 | 18 | 12.9 | 17.7 | 0.00 | 0.10 | 0.10 | 84 | |
| 20260503203055 | 18 | 25 | 4.8 | 11.3 | 0.00 | 0.10 | 0.10 | 85 | |
| 20260503202553 | 18 | 2 | 11.3 | 14.5 | 0.00 | 0.10 | 0.10 | 84 | |
| 20260503202051 | 18 | 15 | 8.0 | 20.9 | 0.00 | 0.10 | 0.10 | 83 | |
| 20260503201549 | 18 | 357 | 8.0 | 22.5 | 0.00 | 0.10 | 0.10 | 82 | |
| 20260503201046 | 19 | 352 | 11.3 | 22.5 | 0.00 | 0.10 | 0.10 | 83 | |
| 20260503200541 | 19 | 350 | 11.3 | 17.7 | 0.00 | 0.10 | 0.10 | 84 | |
| 20260503200038 | 19 | 24 | 12.9 | 17.7 | 0.00 | 0.10 | 0.10 | 86 | |
| 20260503195535 | 19 | 16 | 6.4 | 11.3 | 0.00 | 0.10 | 0.10 | 87 | |
| 20260503195032 | 19 | 27 | 8.0 | 17.7 | 0.00 | 0.10 | 0.10 | 88 | |
| 20260503194529 | 19 | 110 | 3.2 | 6.4 | 0.00 | 0.10 | 0.10 | 90 | |
| 20260503194029 | 19 | 76 | 3.2 | 6.4 | 0.00 | 0.10 | 0.10 | 91 | |
| 20260503193527 | 19 | 105 | 0.0 | 3.2 | 0.00 | 0.10 | 0.10 | 91 | |
| 20260503193021 | 19 | 107 | 1.6 | 3.2 | 0.00 | 0.10 | 0.10 | 91 | |
| 20260503192518 | 19 | 22 | 3.2 | 4.8 | 0.00 | 0.10 | 0.10 | 92 | |
| 20260503192014 | 18 | 98 | 3.2 | 6.4 | 0.00 | 0.10 | 0.10 | 93 | |
| 20260503191511 | 18 | 0 | 1.6 | 4.8 | 0.00 | 0.10 | 0.10 | 93 | |
| 20260503191008 | 18 | 46 | 1.6 | 4.8 | 0.00 | 0.10 | 0.10 | 94 | |
| 20260503190505 | 18 | 98 | 1.6 | 3.2 | 0.00 | 0.10 | 0.10 | 94 | |
| 20260503190002 | 18 | 115 | 0.0 | 0.0 | 0.00 | 0.10 | 0.10 | 94 | |
| 20260503185458 | 18 | 123 | 0.0 | 1.6 | 0.00 | 0.10 | 0.10 | 94 | |
| 20260503184957 | 18 | 114 | 0.0 | 0.0 | 0.00 | 0.10 | 0.10 | 94 | |
| 20260503184454 | 18 | 110 | 0.0 | 1.6 | 0.00 | 0.10 | 0.10 | 94 | |
| 20260503183951 | 18 | 125 | 0.0 | 4.8 | 0.00 | 0.10 | 0.10 | 94 | |
| 20260503183447 | 18 | 128 | 1.6 | 1.6 | 0.00 | 0.10 | 0.10 | 94 | |
| 20260503182944 | 18 | 120 | 1.6 | 3.2 | 0.00 | 0.10 | 0.10 | 94 | |
| 20260503182443 | 18 | 151 | 0.0 | 0.0 | 0.00 | 0.10 | 0.10 | 94 | |
| 20260503181940 | 18 | 129 | 1.6 | 1.6 | 0.00 | 0.10 | 0.10 | 94 | |
| 20260503181437 | 18 | 128 | 0.0 | 1.6 | 0.00 | 0.10 | 0.10 | 94 | |
| 20260503180933 | 18 | 153 | 1.6 | 3.2 | 0.00 | 0.10 | 0.10 | 94 | |
| 20260503180431 | 18 | 122 | 0.0 | 0.0 | 0.00 | 0.10 | 0.10 | 93 | |
| 20260503175928 | 18 | 109 | 0.0 | 0.0 | 0.00 | 0.10 | 0.10 | 93 | |
| 20260503175426 | 18 | 99 | 0.0 | 1.6 | 0.00 | 0.10 | 0.10 | 93 | |
| 20260503174922 | 18 | 101 | 0.0 | 1.6 | 0.18 | 0.10 | 0.10 | 93 | |
| 20260503174420 | 18 | 87 | 1.6 | 1.6 | 0.18 | 0.10 | 0.10 | 93 | |
| 20260503173920 | 18 | 120 | 1.6 | 4.8 | 0.13 | 0.08 | 0.08 | 93 | |
| 20260503173417 | 18 | 3 | 4.8 | 6.4 | 0.30 | 0.08 | 0.08 | 92 | |
| 20260503172913 | 18 | 127 | 1.6 | 4.8 | 0.18 | 0.05 | 0.05 | 92 | |
| 20260503172411 | 18 | 2 | 6.4 | 9.7 | 0.00 | 0.03 | 0.03 | 92 | |
| 20260503171907 | 18 | 45 | 4.8 | 11.3 | 0.00 | 0.03 | 0.03 | 91 | |
| 20260503171404 | 18 | 38 | 9.7 | 14.5 | 0.00 | 0.03 | 0.03 | 91 | |
| 20260503170901 | 18 | 48 | 4.8 | 16.1 | 0.00 | 0.03 | 0.03 | 91 | |
| 20260503170357 | 18 | 12 | 9.7 | 20.9 | 0.00 | 0.03 | 0.03 | 90 |